Flag for Canada Weather past 2 weeks in Halton Hills, Ontario, Canada

Now
77 °F

Partly sunny.


Feels Like: 79 °F
Forecast: N/A
Wind: 9 mph from Southeast

Location: Toronto Pearson International Airport

Current Time: Jul 5, 2015 at 5:17:49 PM

Latest Report: Jul 5, 2015 at 4:00 PM


Visibility: 15 mi

Pressure: 30.09 "Hg

Humidity: 61%

Dew point: 63 °F

Location of Halton HillsLocation

Historic Weather in Halton Hills — Graph

°F

Halton Hills temperature yesterday

Maximum temperature yesterday: 75 °F (at 1:00 PM)
Minimum temperature yesterday: 54 °F (at 6:00 AM)
Average temperature yesterday: 68 °F

Past Weeks' High & Low Weather Summary

 TemperatureHumidityPressure
High81 °F (Jun 21, 1:00 PM)100% (Jun 28, 11:00 AM)30.12 "Hg (Jun 28, 11:00 AM)
Low52 °F (Jul 3, 5:00 AM)31% (Jul 3, 5:00 PM)29.63 "Hg (Jun 23, 5:00 AM)
Average66 °F68%29.91 "Hg
* Reported Jun 20 4:00 PM — Jul 5 4:00 PM, Halton Hills, Weather by CustomWeather, © 2015

Note: Actual official high and low records may vary slightly from our data, if they occured in-between our weather recording intervals... More about our weather records

Advertising

Halton Hills weather history for previous 24 hours

 ConditionsComfort  
Time TempWeatherWind HumidityBarometerVisibility
4:00 PM
Sun, Jul 5
77 °FPartly sunny.9 mph61%30.09 "Hg15 mi
3:00 PM79 °FPartly sunny.12 mph54%30.09 "Hg15 mi
2:00 PM79 °FScattered clouds.12 mph54%30.10 "Hg15 mi
1:00 PM77 °FScattered clouds.9 mph57%30.11 "Hg15 mi
12:00 PM75 °FScattered clouds.8 mph54%30.11 "Hg15 mi
11:00 AM73 °FPassing clouds.7 mph57%30.12 "Hg15 mi
10:00 AM73 °FPartly sunny.6 mph57%30.11 "Hg15 mi
9:00 AM70 °FPartly sunny.5 mph60%30.12 "Hg15 mi
8:00 AM66 °FPartly sunny.2 mph68%30.12 "Hg15 mi
7:00 AM63 °FPartly sunny.3 mph77%30.10 "Hg15 mi
6:00 AM61 °FPassing clouds.5 mph77%30.07 "Hg15 mi
5:00 AM63 °FPassing clouds.3 mph73%30.06 "Hg15 mi
4:00 AM61 °FClear.9 mph77%30.06 "Hg15 mi
3:00 AM63 °FClear.6 mph73%30.05 "Hg15 mi
2:00 AM64 °FClear.7 mph68%30.04 "Hg15 mi
1:00 AM66 °FPassing clouds.7 mph68%30.04 "Hg15 mi
12:00 AM68 °FPassing clouds.8 mph69%30.02 "Hg15 mi
11:00 PM
Sat, Jul 4
72 °FPassing clouds.12 mph57%30.00 "Hg15 mi
10:00 PM73 °FBroken clouds.10 mph57%29.98 "Hg15 mi
9:00 PM72 °FBroken clouds.2 mph50%29.96 "Hg15 mi
8:00 PM72 °FScattered clouds.6 mph50%29.94 "Hg15 mi
7:00 PM75 °FScattered clouds.8 mph44%29.94 "Hg15 mi
6:00 PM75 °FScattered clouds.8 mph44%29.95 "Hg15 mi
5:00 PM75 °FPassing clouds.10 mph44%29.94 "Hg15 mi
Weather by CustomWeather, © 2015

See weather overviewHow to use our weather pages